UAE245 OMDB-OBBI

Flight info

Callsign UAE245
Flight time 0h 53m
Altitude 20000
Route NABI3F NABIX P699 ORMID Y856 ORDIG ORDIG1
Aircraft A333/H-VGD/A

Departure

Time 2026-04-22 14:10
Airport Dubai International Airport (OMDB)

Arrival

Time 2026-04-22 15:04
Airport Bahrain International Airport (OBBI)
Time Latitude Longitude Altitude Speed Heading
2026-04-22 13:53 25.24525 55.37046 46 ft 0 kts 211°
2026-04-22 13:57 25.24526 55.37047 46 ft 0 kts 212°
2026-04-22 13:57 25.24569 55.37092 46 ft 15 kts 250°
2026-04-22 13:57 25.24573 55.37131 47 ft 0 kts 287°
2026-04-22 13:58 25.24574 55.37130 47 ft 0 kts 287°
2026-04-22 13:59 25.24590 55.37122 47 ft 3 kts 16°
2026-04-22 13:59 25.24593 55.37142 48 ft 5 kts 118°
2026-04-22 13:59 25.24585 55.37154 48 ft 0 kts 124°
2026-04-22 14:00 25.24583 55.37157 48 ft 3 kts 123°
2026-04-22 14:00 25.24568 55.37183 49 ft 7 kts 121°
2026-04-22 14:01 25.24530 55.37250 52 ft 12 kts 122°
2026-04-22 14:01 25.24452 55.37389 53 ft 21 kts 122°
2026-04-22 14:01 25.24353 55.37569 47 ft 32 kts 124°
2026-04-22 14:01 25.24273 55.37741 49 ft 2 kts 89°
2026-04-22 14:02 25.24274 55.37761 50 ft 5 kts 85°
2026-04-22 14:02 25.24298 55.37794 52 ft 4 kts 31°
2026-04-22 14:02 25.24313 55.37804 54 ft 3 kts 32°
2026-04-22 14:02 25.24354 55.37833 56 ft 8 kts 33°
2026-04-22 14:03 25.24355 55.37835 56 ft 0 kts 33°
2026-04-22 14:04 25.24356 55.37835 56 ft 1 kts 33°
2026-04-22 14:04 25.24483 55.37931 56 ft 31 kts 34°
2026-04-22 14:05 25.24554 55.37985 56 ft 0 kts 32°
2026-04-22 14:05 25.24569 55.37996 56 ft 0 kts 32°
2026-04-22 14:06 25.24590 55.38010 56 ft 13 kts 32°
2026-04-22 14:07 25.24647 55.38050 56 ft 0 kts 31°
2026-04-22 14:09 25.24656 55.38057 56 ft 6 kts 31°
2026-04-22 14:09 25.24719 55.38099 56 ft 14 kts 32°
2026-04-22 14:09 25.24800 55.38044 56 ft 19 kts 298°
2026-04-22 14:10 25.25068 55.37561 52 ft 105 kts 299°
2026-04-22 14:10 25.25578 55.36634 46 ft 174 kts 302°
2026-04-22 14:10 25.26184 55.35276 387 ft 209 kts 290°
2026-04-22 14:10 25.26521 55.34282 1047 ft 215 kts 290°
2026-04-22 14:11 25.27179 55.32811 2114 ft 223 kts 301°
2026-04-22 14:11 25.28142 55.31468 3146 ft 235 kts 307°
2026-04-22 14:11 25.29272 55.30047 4047 ft 253 kts 304°
2026-04-22 14:11 25.30619 55.27982 5608 ft 254 kts 282°
2026-04-22 14:12 25.30554 55.26148 6776 ft 246 kts 241°
2026-04-22 14:12 25.29924 55.25135 7469 ft 246 kts 228°
2026-04-22 14:12 25.28757 55.23724 8390 ft 254 kts 227°
2026-04-22 14:12 25.27610 55.22240 9358 ft 258 kts 227°
2026-04-22 14:13 25.26517 55.20667 10336 ft 260 kts 232°
2026-04-22 14:13 25.25526 55.18968 11288 ft 262 kts 234°
2026-04-22 14:13 25.24222 55.16706 12573 ft 263 kts 239°
2026-04-22 14:13 25.23742 55.15491 13209 ft 263 kts 251°
2026-04-22 14:14 25.23662 55.13435 13831 ft 277 kts 276°
2026-04-22 14:14 25.23807 55.10497 14556 ft 300 kts 263°
2026-04-22 14:14 25.23585 55.08193 15068 ft 303 kts 264°
2026-04-22 14:14 25.23465 55.06594 15340 ft 319 kts 265°
2026-04-22 14:15 25.23151 55.03184 15761 ft 350 kts 261°
2026-04-22 14:15 25.22926 55.01366 15976 ft 365 kts 261°
2026-04-22 14:15 25.22519 54.98539 16352 ft 384 kts 258°
2026-04-22 14:15 25.22049 54.95587 16723 ft 388 kts 258°
2026-04-22 14:16 25.21391 54.91773 17391 ft 375 kts 257°
2026-04-22 14:16 25.21046 54.88911 18135 ft 381 kts 262°
2026-04-22 14:16 25.20951 54.86988 18600 ft 385 kts 265°
2026-04-22 14:16 25.20841 54.83078 19995 ft 377 kts 268°
2026-04-22 14:17 25.20779 54.81154 20426 ft 381 kts 267°
2026-04-22 14:17 25.20636 54.78244 20425 ft 373 kts 266°
2026-04-22 14:17 25.20475 54.75408 19822 ft 373 kts 264°
2026-04-22 14:17 25.20408 54.72600 19011 ft 382 kts 269°
2026-04-22 14:18 25.20559 54.68711 19795 ft 380 kts 272°
2026-04-22 14:18 25.20648 54.66769 20059 ft 384 kts 271°
2026-04-22 14:18 25.20785 54.63847 20166 ft 385 kts 271°
2026-04-22 14:18 25.20928 54.60891 20234 ft 388 kts 271°
2026-04-22 14:19 25.21052 54.56884 20015 ft 395 kts 267°
2026-04-22 14:19 25.21034 54.54858 19892 ft 399 kts 267°
2026-04-22 14:19 25.21295 54.51825 19641 ft 405 kts 279°
2026-04-22 14:19 25.22373 54.47940 19929 ft 389 kts 292°
2026-04-22 14:20 25.24430 54.43525 19631 ft 378 kts 286°
2026-04-22 14:20 25.25131 54.40784 19607 ft 370 kts 279°
2026-04-22 14:20 25.25412 54.38002 19528 ft 362 kts 275°
2026-04-22 14:21 25.26255 54.32606 20014 ft 354 kts 275°
2026-04-22 14:21 25.26732 54.29914 20096 ft 361 kts 277°
2026-04-22 14:22 25.28364 54.23669 20687 ft 368 kts 283°
2026-04-22 14:22 25.28869 54.21807 20572 ft 378 kts 284°
2026-04-22 14:22 25.30420 54.16066 20277 ft 399 kts 284°
2026-04-22 14:23 25.31492 54.12139 20134 ft 406 kts 282°
2026-04-22 14:23 25.32000 54.10127 20099 ft 408 kts 283°
2026-04-22 14:23 25.32742 54.07136 20058 ft 403 kts 283°
2026-04-22 14:23 25.33729 54.03198 20050 ft 395 kts 283°
2026-04-22 14:24 25.34210 54.01263 20079 ft 395 kts 283°
2026-04-22 14:24 25.34925 53.98319 20133 ft 396 kts 282°
2026-04-22 14:24 25.35611 53.95384 20197 ft 397 kts 282°
2026-04-22 14:24 25.36283 53.92404 20263 ft 398 kts 281°
2026-04-22 14:25 25.36928 53.89453 20335 ft 398 kts 282°
2026-04-22 14:25 25.37570 53.86469 20337 ft 396 kts 281°
2026-04-22 14:25 25.38188 53.83518 20348 ft 396 kts 280°
2026-04-22 14:25 25.38788 53.80537 20301 ft 397 kts 281°
2026-04-22 14:26 25.39358 53.77556 20233 ft 399 kts 279°
2026-04-22 14:26 25.39862 53.74558 20181 ft 400 kts 278°
2026-04-22 14:26 25.40254 53.71529 20132 ft 396 kts 275°
2026-04-22 14:26 25.40605 53.68507 20062 ft 395 kts 275°
2026-04-22 14:27 25.41011 53.65521 20028 ft 392 kts 278°
2026-04-22 14:27 25.41553 53.62582 20061 ft 392 kts 281°
2026-04-22 14:27 25.42634 53.59794 19756 ft 400 kts 291°
2026-04-22 14:27 25.43490 53.56883 19658 ft 394 kts 283°
2026-04-22 14:28 25.44252 53.53982 19724 ft 393 kts 283°
2026-04-22 14:28 25.45000 53.51091 19790 ft 391 kts 283°
2026-04-22 14:28 25.45708 53.48208 19864 ft 389 kts 282°
2026-04-22 14:28 25.46370 53.45293 19952 ft 391 kts 281°
2026-04-22 14:29 25.46962 53.42360 20056 ft 392 kts 279°
2026-04-22 14:29 25.47486 53.39391 20111 ft 395 kts 279°
2026-04-22 14:29 25.48009 53.36396 20079 ft 399 kts 279°
2026-04-22 14:29 25.48619 53.33366 20124 ft 402 kts 281°
2026-04-22 14:30 25.49293 53.30365 20100 ft 403 kts 281°
2026-04-22 14:30 25.49984 53.27372 20061 ft 400 kts 282°
2026-04-22 14:30 25.50751 53.24397 20035 ft 398 kts 284°
2026-04-22 14:30 25.51828 53.20509 20048 ft 396 kts 284°
2026-04-22 14:31 25.52381 53.18555 20065 ft 396 kts 284°
2026-04-22 14:31 25.53464 53.14679 20123 ft 397 kts 284°
2026-04-22 14:31 25.53986 53.12748 20160 ft 396 kts 283°
2026-04-22 14:31 25.55002 53.08831 20173 ft 398 kts 283°
2026-04-22 14:32 25.55504 53.06849 20163 ft 397 kts 283°
2026-04-22 14:32 25.56238 53.03909 20159 ft 396 kts 283°
2026-04-22 14:32 25.56952 53.00964 20169 ft 395 kts 282°
2026-04-22 14:32 25.57848 52.97058 20197 ft 395 kts 281°
2026-04-22 14:33 25.58281 52.95082 20167 ft 397 kts 281°
2026-04-22 14:33 25.58914 52.92137 20119 ft 395 kts 278°
2026-04-22 14:33 25.59683 52.89217 20032 ft 397 kts 282°
2026-04-22 14:33 25.60501 52.86292 19895 ft 396 kts 284°
2026-04-22 14:34 25.61862 52.82529 19967 ft 394 kts 289°
2026-04-22 14:34 25.62544 52.80669 20047 ft 394 kts 289°
2026-04-22 14:34 25.63606 52.77850 20145 ft 396 kts 290°
2026-04-22 14:34 25.64706 52.75046 20253 ft 396 kts 290°
2026-04-22 14:35 25.65799 52.72258 20302 ft 398 kts 289°
2026-04-22 14:35 25.66861 52.69442 20323 ft 399 kts 288°
2026-04-22 14:35 25.67864 52.66539 20361 ft 400 kts 287°
2026-04-22 14:35 25.68770 52.63657 20405 ft 399 kts 284°
2026-04-22 14:36 25.70079 52.59834 20426 ft 402 kts 291°
2026-04-22 14:36 25.71011 52.58043 20395 ft 406 kts 298°
2026-04-22 14:36 25.72516 52.55361 20233 ft 410 kts 298°
2026-04-22 14:36 25.74003 52.52661 20187 ft 404 kts 297°
2026-04-22 14:37 25.75882 52.49091 20245 ft 401 kts 295°
2026-04-22 14:37 25.76777 52.47292 20242 ft 399 kts 294°
2026-04-22 14:37 25.78036 52.44564 20246 ft 396 kts 292°
2026-04-22 14:37 25.79161 52.41833 20253 ft 393 kts 289°
2026-04-22 14:38 25.80224 52.39056 20269 ft 391 kts 291°
2026-04-22 14:38 25.81413 52.36324 20242 ft 393 kts 294°
2026-04-22 14:38 25.82660 52.33600 19886 ft 401 kts 293°
2026-04-22 14:38 25.83910 52.30840 20033 ft 395 kts 293°
2026-04-22 14:39 25.85132 52.28146 19995 ft 396 kts 293°
2026-04-22 14:39 25.86426 52.25416 19958 ft 397 kts 298°
2026-04-22 14:39 25.88542 52.22081 19990 ft 398 kts 303°
2026-04-22 14:40 25.91448 52.18124 19976 ft 399 kts 308°
2026-04-22 14:40 25.94005 52.15028 19993 ft 417 kts 308°
2026-04-22 14:40 25.95311 52.13443 19982 ft 419 kts 309°
2026-04-22 14:40 25.97402 52.11220 19958 ft 413 kts 314°
2026-04-22 14:41 26.00233 52.08375 19967 ft 410 kts 313°
2026-04-22 14:41 26.01661 52.06947 19968 ft 409 kts 314°
2026-04-22 14:41 26.03763 52.04842 19972 ft 409 kts 313°
2026-04-22 14:41 26.05878 52.02735 19973 ft 409 kts 313°
2026-04-22 14:42 26.07994 52.00628 19973 ft 407 kts 313°
2026-04-22 14:42 26.10103 51.98528 19970 ft 408 kts 313°
2026-04-22 14:42 26.12238 51.96401 19968 ft 407 kts 314°
2026-04-22 14:42 26.14347 51.94295 19969 ft 406 kts 313°
2026-04-22 14:43 26.16436 51.92212 19970 ft 407 kts 314°
2026-04-22 14:43 26.18539 51.90119 19968 ft 407 kts 314°
2026-04-22 14:43 26.20664 51.88005 19973 ft 407 kts 314°
2026-04-22 14:43 26.22761 51.85926 19972 ft 407 kts 313°
2026-04-22 14:44 26.24701 51.83640 19966 ft 402 kts 304°
2026-04-22 14:44 26.26407 51.81204 19989 ft 401 kts 304°
2026-04-22 14:44 26.28699 51.77938 19985 ft 400 kts 303°
2026-04-22 14:44 26.29837 51.76323 19989 ft 401 kts 304°
2026-04-22 14:45 26.31570 51.73857 19989 ft 401 kts 303°
2026-04-22 14:45 26.33284 51.71420 19989 ft 400 kts 304°
2026-04-22 14:45 26.35005 51.68984 19988 ft 400 kts 304°
2026-04-22 14:45 26.36719 51.66558 19987 ft 400 kts 304°
2026-04-22 14:46 26.38353 51.64071 19974 ft 395 kts 296°
2026-04-22 14:46 26.39642 51.61362 19991 ft 394 kts 294°
2026-04-22 14:46 26.40908 51.58675 19984 ft 395 kts 294°
2026-04-22 14:46 26.42181 51.55949 19981 ft 393 kts 294°
2026-04-22 14:47 26.43910 51.52365 20092 ft 390 kts 296°
2026-04-22 14:47 26.44839 51.50613 19777 ft 404 kts 295°
2026-04-22 14:47 26.46298 51.47985 19409 ft 393 kts 297°
2026-04-22 14:47 26.47694 51.45389 19072 ft 388 kts 294°
2026-04-22 14:48 26.48987 51.42780 18725 ft 386 kts 290°
2026-04-22 14:48 26.50007 51.40032 18121 ft 383 kts 285°
2026-04-22 14:48 26.50752 51.37217 17386 ft 380 kts 277°
2026-04-22 14:48 26.50861 51.34365 17169 ft 363 kts 258°
2026-04-22 14:49 26.50034 51.31680 17047 ft 364 kts 244°
2026-04-22 14:49 26.48991 51.29122 16814 ft 368 kts 241°
2026-04-22 14:49 26.47647 51.26693 16533 ft 369 kts 236°
2026-04-22 14:49 26.45987 51.24497 16185 ft 369 kts 225°
2026-04-22 14:50 26.44248 51.22440 15902 ft 364 kts 234°
2026-04-22 14:50 26.42694 51.19105 15634 ft 362 kts 247°
2026-04-22 14:50 26.42150 51.17319 15511 ft 362 kts 250°
2026-04-22 14:50 26.41340 51.14695 15358 ft 362 kts 251°
2026-04-22 14:51 26.40544 51.12054 15216 ft 360 kts 249°
2026-04-22 14:51 26.39729 51.09417 15136 ft 359 kts 249°
2026-04-22 14:51 26.38906 51.06788 15157 ft 360 kts 251°
2026-04-22 14:51 26.38063 51.04141 15093 ft 361 kts 249°
2026-04-22 14:52 26.37156 51.01577 15129 ft 352 kts 248°
2026-04-22 14:52 26.36253 50.99080 15541 ft 353 kts 249°
2026-04-22 14:52 26.35366 50.96441 15599 ft 369 kts 249°
2026-04-22 14:52 26.34415 50.93787 15616 ft 366 kts 248°
2026-04-22 14:53 26.33836 50.90125 15767 ft 364 kts 271°
2026-04-22 14:53 26.34084 50.88268 15872 ft 365 kts 275°
2026-04-22 14:53 26.34486 50.85463 15908 ft 367 kts 275°
2026-04-22 14:53 26.34849 50.82662 15892 ft 367 kts 277°
2026-04-22 14:54 26.35222 50.79861 15841 ft 365 kts 275°
2026-04-22 14:54 26.35553 50.77041 15752 ft 365 kts 274°
2026-04-22 14:54 26.35853 50.74258 15673 ft 364 kts 274°
2026-04-22 14:54 26.36197 50.71453 15733 ft 362 kts 276°
2026-04-22 14:55 26.36629 50.68685 15826 ft 361 kts 268°
2026-04-22 14:55 26.36085 50.66008 15935 ft 364 kts 243°
2026-04-22 14:55 26.34389 50.63912 15998 ft 371 kts 215°
2026-04-22 14:55 26.31867 50.62997 16009 ft 386 kts 187°
2026-04-22 14:56 26.29159 50.63407 15991 ft 394 kts 172°
2026-04-22 14:56 26.26439 50.63921 15997 ft 392 kts 176°
2026-04-22 14:56 26.23715 50.64353 16030 ft 392 kts 177°
2026-04-22 14:56 26.20985 50.64761 16074 ft 392 kts 178°
2026-04-22 14:57 26.18283 50.65170 16127 ft 392 kts 177°
2026-04-22 14:57 26.15568 50.65612 16190 ft 393 kts 176°
2026-04-22 14:57 26.12878 50.66100 16273 ft 394 kts 175°
2026-04-22 14:57 26.09280 50.66907 16400 ft 397 kts 170°
2026-04-22 14:58 26.07498 50.67526 16089 ft 397 kts 161°
2026-04-22 14:58 26.05249 50.69190 15360 ft 391 kts 136°
2026-04-22 14:58 26.03831 50.71731 14570 ft 386 kts 110°
2026-04-22 14:58 26.03498 50.74600 13752 ft 381 kts 83°
2026-04-22 14:59 26.04315 50.77367 12606 ft 381 kts 53°
2026-04-22 14:59 26.06113 50.79438 11417 ft 377 kts 36°
2026-04-22 14:59 26.08226 50.81133 10340 ft 371 kts 29°
2026-04-22 14:59 26.10457 50.82489 9268 ft 367 kts 24°
2026-04-22 15:00 26.12743 50.83756 8037 ft 365 kts 21°
2026-04-22 15:00 26.15123 50.84390 7079 ft 349 kts 354°
2026-04-22 15:00 26.17315 50.83561 6075 ft 331 kts 309°
2026-04-22 15:00 26.18473 50.81473 5095 ft 320 kts 293°
2026-04-22 15:01 26.19235 50.79178 3678 ft 318 kts 290°
2026-04-22 15:01 26.19825 50.76854 2265 ft 319 kts 285°
2026-04-22 15:01 26.20352 50.74506 1220 ft 303 kts 296°
2026-04-22 15:01 26.21297 50.72588 846 ft 264 kts 310°
2026-04-22 15:02 26.22353 50.71069 625 ft 234 kts 313°
2026-04-22 15:02 26.23357 50.69698 437 ft 217 kts 307°
2026-04-22 15:02 26.24197 50.68427 377 ft 189 kts 303°
2026-04-22 15:02 26.24852 50.67240 276 ft 178 kts 306°
2026-04-22 15:03 26.25472 50.66114 207 ft 167 kts 304°
2026-04-22 15:03 26.26102 50.65050 95 ft 162 kts 303°
2026-04-22 15:03 26.26707 50.64019 17 ft 150 kts 307°
2026-04-22 15:03 26.27188 50.63187 17 ft 99 kts 303°
2026-04-22 15:04 26.27469 50.62703 17 ft 50 kts 303°
2026-04-22 15:04 26.27639 50.62397 17 ft 48 kts 303°
2026-04-22 15:04 26.27770 50.62096 16 ft 28 kts 257°
2026-04-22 15:04 26.27745 50.61941 17 ft 0 kts 269°
2026-04-22 15:05 26.27742 50.61933 17 ft 3 kts 239°
2026-04-22 15:05 26.27702 50.61950 17 ft 11 kts 121°
2026-04-22 15:06 26.27647 50.62054 17 ft 19 kts 122°
2026-04-22 15:06 26.27607 50.62122 17 ft 0 kts 122°
2026-04-22 15:08 26.27605 50.62127 17 ft 4 kts 121°
2026-04-22 15:08 26.27549 50.62226 17 ft 23 kts 123°
2026-04-22 15:08 26.27438 50.62422 17 ft 32 kts 122°
2026-04-22 15:08 26.27216 50.62577 17 ft 27 kts 129°
2026-04-22 15:09 26.27146 50.62696 17 ft 26 kts 121°
2026-04-22 15:09 26.27048 50.62865 16 ft 25 kts 122°
2026-04-22 15:09 26.27026 50.62903 17 ft 0 kts 122°
2026-04-22 15:10 26.27020 50.62914 17 ft 5 kts 124°
2026-04-22 15:10 26.26994 50.62957 17 ft 0 kts 124°
2026-04-22 15:10 26.26992 50.62961 17 ft 4 kts 124°
2026-04-22 15:11 26.26939 50.62983 16 ft 5 kts 193°
2026-04-22 15:11 26.26909 50.62956 17 ft 5 kts 213°
2026-04-22 15:11 26.26889 50.62943 17 ft 0 kts 211°
2026-04-22 15:11 26.26887 50.62942 17 ft 0 kts 212°